Probability
0 0 0 0 0 0 0 0 0 0 0 0 0 0 0 0 0 0 0 0 0 0 0 0 0 0 0 0 0 0 0 0 0 0 0 0 0 0 0 0 0 0 0 0
0 0 0 0 0 0 0 0 0 0 0 0 0 0 0 0 0 0 0 0 0 0 0 0 0 0 0 0 0 0 0 0 0 0 0 0 0 0 0 0 0 0 0 0
0 0 0 0 0 0 0 0 0 0 0 0 0 0 0 0 0 0 0 0 0 0 0 0 0 0 0 0 0 0 0 0 0 0 0 0 0 0 0 0 0 0 0 0
0 0 0 0 0 0 0 0 0 0 0 0 0 0 0 0 0 0 0 0 0 0 0 0 0 0 0 0 0 0 0 0 0 0 0 0 0 0 0 0 0 0 0 0
0 0 0 0 0 0 0 0 0 0 0 0 0 0 0 0 0 0 0 0 0 0 0 0 0 0 0 0 0 0 0 0 0 0 0 0 0 0 0 0 0 0 0 0
0 0 0 0 0 0 0 0 0 0 0 0 0 0 0 0 0 0 0 0 0 0 0 0 0 0 0 0 0 0 0 0 0 0 0 0 0 0 0 0 0 0 0 0
0 0 0 0 0 0 0 0 0 0 0 0 0 0 0 0 0 0 0 0 0 0 0 0 0 0 0 0 0 0 0 0 0 0 0 0 0 0 0 0 0 0 0 0
0 0 0 0 0 0 0 0 0 0 0 0 0 0 0 0 0 0 0 0 0 0 0 0 0 0 0 0 0 0 0 0 0 0 0 0 0 0 0 0 0 0 0 0
0 0 0 0 0 0 0 0 0 0 0 0 0 0 0 0 0 0 0 0 0 0 0 0 0 0 0 0 0 0 0 0 0 0 0 0 0 0 0 0 0 0 0 0
0 0 0 0 0 0 0 0 0 0 0 0 0 0 0 0 0 0 0 0 0 0 0 0 0 0 0 0 0 0 0 0 0 0 0 0 0 0 0 0 0 0 0 0
0 0 0 0 0 0 0 0 0 0 0 0 0 0 0 0 0 0 0 0 0 0 0 0 0 0 0 0 0 0 0 0 0 0 0 0 0 0 0 0 0 0 0 0
0 0 0 0 0 0 0 0 0 0 0 0 0 0 0 0 0 0 0 0 0 0 0 0 0 0 0 0 0 0 0 0 0 0 0 0 0 0 0 0 0 0 0 0
0 0 0 0 0 0 0 0 0 0 0 0 0 0 0 0 0 0 0 0 0 0 0 0 0 0 0 0 0 0 0 0 0 0 0 0 0 0 0 0 0 0 0 0
0 0 0 0 0 0 0 0 0 0 0 0 0 0 0 0 0 0 0 0 0 0 0 0 0 0 0 0 0 0 0 0 0 0 0 0 0 0 0 0 0 0 0 0
0 0 0 0 0 0 0 0 0 0 0 0 0 0 0 0 0 0 0 0 0 0 0 0 0 0 0 0 0 0 0 0 0 0 0 0 0 0 0 0 0 0 0 0
0 0 0 0 0 0 0 0 0 0 0 0 0 0 0 0 0 0 0 0 0 0 0 0 0 0 0 0 0 0 0 0 0 0 0 0 0 0 0 0 0 0 0 0
0 0 0 0 0 0 0 0 0 0 0 0 0 0 0 0 0 0 0 0 0 0 0 0 0 0 0 0 0 0 0 0 0 0 0 0 0 0 0 0 0 0 0 0
0 0 0 0 0 0 0 0 0 0 0 0 0 0 0 0 0 0 0 0 0 0 0 0 0 0 0 0 0 0 0 0 0 0 0 0 0 0 0 0 0 0 0 0
0 0 0 0 0 0 0 0 0 0 0 0 0 0 0 0 0 0 0 0 0 0 0 0 0 0 0 0 0 0 0 0 0 0 0 0 0 0 0 0 0 0 0 0
0 0 0 0 0 0 0 0 0 0 0 0 0 0 0 0 0 0 0 0 0 0 0 0 0 0 0 0 0 0 0 0 0 0 0 0 0 0 0 0 0 0 0 0
0 0 0 0 0 0 0 0 0 0 0 0 0 0 0 0 0 0 0 0 0 0 0 0 0 0 0 0 0 0 0 0 0 0 0 0 0 0 0 0 0 0 0 0
0 0 0 0 0 0 0 0 0 0 0 0 0 0 0 0 0 0 0 0 0 0 0 0 0 0 0 0 0 0 0 0 0 0 0 0 0 0 0 0 0 0 0 0
0 0 0 0 0 0 0 0 0 0 0 0 0 0 0 0 0 0 0 0 0 0 0 0 0 0 0 0 0 0 0 0 0 0 0 0 0 0 0 0 0 0 0 0
0 0 0 0 0 0 0 0 0 0 0 0 0 0 0 0 0 0 0 0 0 0 0 0 0 0 0 0 0 0 0 0 0 0 0 0 0 0 0 0 0 0 0 0
0 0 0 0 0 0 0 0 0 0 0 0 0 0 0 0 0 0 0 0 0 0 0 0 0 0 0 0 0 0 0 0 0 0 0 0 0 0 0 0 0 0 0 0
0 0 0 0 0 0 0 0 0 0 0 0 0 0 0 0 0 0 0 0 0 0 0 0 0 0 0 0 0 0 0 0 0 0 0 0 0 0 0 0 0 0 0 0
0 0 0 0 0 0 0 0 0 0 0 0 0 0 0 0 0 0 0 0 0 0 0 0 0 0 0 0 0 0 0 0 0 0 0 0 0 0 0 0 0 0 0 0
Height
5837 5838 5840 5841 5842 5843 5844 5845 5846 5847 5847 5847 5847 5847 5847 5846 5846 5845 5845 5844 5843 5842 5840 5839 5837 5835 5833 5831 5829 5827 5825 5823 5821 5818 5816 5813 5811 5809 5807 5805 5803 5801 5799 5798
5836 5837 5838 5839 5840 5841 5842 5843 5844 5844 5845 5845 5845 5845 5845 5844 5844 5843 5842 5841 5840 5839 5838 5836 5834 5832 5830 5828 5825 5823 5821 5818 5816 5813 5811 5808 5806 5804 5802 5800 5798 5796 5795 5793
5835 5835 5837 5838 5839 5840 5840 5841 5842 5842 5843 5842 5842 5842 5842 5842 5841 5840 5839 5838 5837 5836 5834 5832 5830 5828 5826 5823 5820 5818 5815 5813 5810 5807 5805 5802 5800 5798 5796 5794 5792 5791 5789 5788
5832 5834 5835 5838 5836 5837 5838 5839 5839 5839 5840 5840 5840 5839 5839 5838 5838 5837 5836 5835 5833 5832 5830 5828 5826 5823 5821 5818 5815 5812 5809 5806 5803 5800 5797 5795 5793 5790 5789 5787 5786 5784 5783 5781
5830 5831 5833 5834 5834 5834 5835 5836 5836 5836 5836 5836 5836 5835 5835 5834 5834 5833 5832 5830 5829 5827 5825 5822 5820 5817 5815 5812 5809 5806 5803 5799 5796 5793 5790 5787 5785 5782 5780 5779 5777 5776 5775 5773
5827 5828 5830 5832 5831 5831 5833 5833 5833 5832 5832 5832 5832 5831 5832 5830 5829 5827 5826 5824 5823 5821 5819 5816 5814 5811 5808 5804 5801 5798 5794 5791 5787 5784 5781 5778 5775 5773 5770 5769 5767 5766 5765 5764
5823 5824 5825 5827 5826 5827 5829 5830 5828 5828 5828 5827 5827 5827 5826 5824 5823 5822 5820 5818 5816 5814 5812 5809 5806 5803 5800 5796 5793 5789 5785 5781 5778 5774 5770 5767 5764 5761 5759 5757 5756 5755 5754 5753
5819 5820 5823 5821 5822 5823 5824 5823 5823 5822 5822 5822 5821 5820 5819 5818 5816 5815 5813 5811 5809 5807 5804 5801 5798 5795 5791 5787 5783 5779 5775 5771 5767 5763 5758 5754 5751 5748 5745 5743 5742 5741 5741 5740
5814 5816 5816 5816 5816 5816 5817 5816 5816 5816 5816 5815 5814 5813 5812 5811 5809 5807 5805 5803 5801 5798 5795 5792 5788 5785 5781 5777 5772 5768 5764 5759 5754 5749 5744 5740 5736 5733 5730 5728 5726 5726 5726 5726
5807 5808 5808 5808 5809 5809 5809 5809 5809 5809 5808 5808 5807 5805 5804 5802 5801 5799 5797 5794 5792 5789 5785 5782 5778 5774 5769 5765 5760 5755 5750 5745 5740 5734 5729 5724 5720 5716 5713 5711 5710 5709 5710 5710
5799 5800 5800 5801 5801 5801 5801 5801 5801 5801 5800 5799 5798 5797 5795 5793 5791 5789 5787 5784 5781 5778 5774 5770 5766 5762 5757 5752 5747 5741 5736 5730 5725 5719 5714 5709 5704 5700 5696 5694 5692 5692 5692 5692
5791 5792 5792 5793 5793 5793 5793 5793 5792 5792 5791 5790 5788 5787 5785 5783 5781 5779 5776 5773 5770 5766 5762 5758 5753 5749 5744 5738 5732 5726 5721 5715 5709 5704 5698 5693 5688 5685 5680 5677 5675 5672 5672 5673
5781 5781 5782 5783 5783 5783 5783 5783 5782 5781 5780 5779 5778 5776 5774 5772 5770 5767 5764 5761 5757 5753 5749 5745 5740 5735 5729 5723 5717 5711 5705 5699 5693 5688 5682 5677 5672 5668 5664 5661 5657 5655 5653 5653
5769 5771 5771 5772 5772 5772 5772 5772 5771 5770 5769 5768 5766 5764 5762 5760 5757 5755 5751 5748 5744 5740 5735 5730 5725 5720 5713 5707 5701 5695 5688 5682 5676 5671 5665 5660 5655 5650 5646 5643 5640 5637 5635 5634
5758 5759 5760 5760 5761 5761 5760 5759 5759 5758 5757 5756 5754 5752 5750 5747 5744 5741 5738 5734 5730 5725 5720 5715 5710 5704 5697 5691 5684 5678 5672 5666 5660 5654 5648 5643 5638 5633 5628 5624 5621 5619 5617 5616
5745 5746 5747 5748 5748 5748 5747 5747 5746 5745 5744 5742 5741 5738 5736 5733 5730 5727 5723 5719 5714 5710 5704 5699 5693 5687 5680 5674 5667 5661 5655 5648 5642 5636 5631 5625 5620 5615 5610 5606 5603 5600 5598 5597
5732 5733 5734 5734 5735 5734 5734 5733 5733 5732 5730 5729 5727 5724 5721 5719 5715 5712 5708 5703 5698 5693 5688 5682 5676 5670 5663 5656 5650 5643 5637 5631 5624 5618 5612 5607 5602 5596 5592 5588 5584 5581 5579 5577
5719 5720 5720 5721 5721 5720 5720 5719 5718 5717 5716 5714 5712 5709 5707 5703 5700 5696 5692 5687 5682 5677 5671 5665 5658 5652 5645 5638 5632 5625 5619 5613 5606 5600 5594 5589 5583 5578 5574 5570 5566 5562 5560 5558
5705 5706 5706 5706 5706 5706 5706 5705 5704 5702 5701 5699 5696 5694 5691 5687 5683 5679 5675 5670 5665 5660 5654 5647 5641 5634 5627 5621 5614 5607 5601 5594 5588 5582 5576 5571 5565 5561 5556 5552 5548 5544 5541 5539
5691 5692 5692 5692 5692 5691 5691 5690 5688 5687 5685 5682 5680 5677 5674 5670 5666 5662 5657 5653 5647 5641 5635 5629 5622 5616 5610 5603 5596 5589 5583 5576 5570 5564 5558 5553 5548 5543 5539 5534 5530 5527 5524 5522
5676 5677 5677 5677 5677 5676 5675 5674 5672 5670 5668 5666 5663 5660 5656 5652 5648 5644 5639 5635 5630 5622 5617 5610 5604 5598 5591 5585 5578 5571 5565 5559 5552 5547 5541 5536 5531 5526 5522 5517 5514 5510 5507 5504
5661 5661 5661 5661 5660 5660 5658 5656 5655 5653 5650 5648 5645 5641 5638 5634 5630 5625 5620 5616 5611 5604 5598 5592 5586 5579 5572 5566 5560 5554 5547 5541 5535 5529 5524 5519 5514 5510 5506 5502 5498 5494 5491 5488
5644 5644 5644 5644 5643 5642 5641 5639 5637 5635 5632 5629 5626 5622 5619 5615 5610 5606 5602 5597 5590 5584 5578 5573 5567 5561 5554 5547 5542 5536 5530 5524 5519 5513 5508 5503 5498 5494 5490 5486 5483 5479 5476 5473
5627 5627 5627 5626 5625 5624 5623 5621 5618 5616 5613 5610 5606 5603 5598 5595 5591 5586 5581 5577 5571 5565 5560 5555 5549 5542 5536 5530 5525 5519 5514 5508 5503 5498 5493 5488 5483 5479 5475 5471 5468 5465 5462 5459
5609 5609 5608 5607 5606 5605 5603 5601 5599 5596 5593 5590 5586 5582 5578 5574 5570 5566 5561 5556 5551 5546 5541 5536 5531 5525 5518 5513 5508 5503 5498 5493 5488 5483 5478 5474 5470 5465 5461 5457 5454 5451 5448 5446
5590 5590 5589 5588 5586 5584 5582 5580 5578 5575 5572 5569 5566 5562 5557 5553 5549 5545 5541 5536 5531 5527 5522 5517 5513 5507 5502 5497 5492 5488 5483 5478 5473 5469 5465 5460 5456 5452 5448 5444 5441 5438 5435 5433
5570 5569 5569 5568 5566 5564 5561 5559 5556 5554 5551 5548 5545 5541 5537 5533 5529 5525 5521 5517 5513 5508 5504 5500 5495 5491 5486 5482 5477 5473 5468 5464 5460 5456 5452 5448 5443 5439 5436 5432 5429 5426 5424 5422
Wind_Speed
12 11 10 10 9 9 8 8 7 6 5 4 3 3 3 4 5 6 7 8 9 11 12 13 14 16 17 17 18 19 20 21 22 22 23 23 23 23 23 23 22 22 21 20
11 11 10 9 9 8 8 7 6 6 5 4 4 4 4 5 7 7 8 9 11 12 14 15 16 17 18 20 21 22 23 24 24 25 25 25 25 25 24 24 24 24 23 22
11 10 10 9 9 8 8 7 6 6 6 5 5 5 6 7 8 9 10 11 12 13 14 16 17 18 20 21 22 24 25 26 27 28 28 28 27 27 26 26 26 26 25 25
11 10 10 9 9 8 8 8 7 7 7 7 7 8 9 9 10 11 12 13 14 15 17 18 19 21 22 23 25 26 27 28 29 30 30 30 30 30 29 29 29 28 28 28
12 11 10 10 10 10 9 9 8 8 9 9 10 11 11 12 13 13 14 15 17 18 19 21 22 24 25 27 28 29 30 31 32 32 33 33 33 33 33 33 32 32 31 31
13 13 12 12 12 12 11 10 11 11 11 12 13 14 14 15 16 16 17 18 19 21 22 24 25 27 28 30 31 32 34 34 34 35 36 36 36 36 37 36 36 35 34 34
16 16 15 14 14 14 14 13 14 14 14 15 16 17 17 18 18 19 20 21 22 24 25 27 28 30 32 33 35 36 37 37 38 39 39 39 39 39 39 39 39 38 38 37
18 18 17 17 17 17 17 17 16 17 17 18 19 20 20 21 22 22 23 24 26 27 29 31 32 34 35 37 38 39 40 41 42 43 43 43 42 42 41 41 41 41 40 40
21 21 20 20 20 20 20 20 20 21 21 22 22 23 23 24 25 26 27 28 30 31 33 34 36 37 38 40 41 42 43 44 45 45 46 45 45 45 44 44 43 43 43 43
24 24 24 24 24 24 24 24 24 24 24 25 26 26 27 27 28 29 30 31 33 35 36 37 39 40 41 42 43 44 46 47 47 47 47 48 47 46 46 46 46 45 46 45
27 27 28 28 28 28 28 27 27 28 28 28 29 29 30 31 32 33 34 35 37 38 39 40 42 43 45 46 47 48 49 49 49 49 49 49 48 48 47 47 48 48 48 48
31 31 32 31 31 31 31 31 31 31 31 31 32 33 33 34 35 36 38 39 40 42 43 44 45 47 48 50 51 51 52 52 51 51 51 51 50 49 49 50 49 49 49 49
36 35 35 35 35 34 34 34 34 34 34 35 35 36 36 37 38 39 41 42 43 45 46 48 49 50 52 53 54 54 55 55 54 54 53 53 52 51 51 50 50 50 50 50
39 39 39 38 38 37 37 37 37 37 37 38 38 39 39 40 41 42 44 45 47 48 49 51 52 54 55 56 57 57 57 57 56 55 55 54 54 53 53 51 49 49 50 50
42 42 41 41 41 40 40 40 40 40 40 41 41 42 43 44 45 46 48 49 50 51 52 54 55 57 58 58 59 59 59 58 58 57 56 56 56 55 53 52 50 49 49 50
45 44 44 43 43 43 43 42 43 43 43 43 44 45 46 47 48 49 50 51 53 54 55 57 58 59 60 60 61 61 61 60 59 59 58 58 57 55 53 52 51 50 50 50
46 45 45 45 45 45 44 44 45 45 45 45 46 47 48 49 50 51 53 54 55 56 58 59 60 62 62 63 63 63 63 61 60 60 59 59 57 55 53 52 51 51 50 50
45 46 46 46 45 45 45 45 46 46 46 47 48 49 50 52 53 54 55 56 57 58 60 62 63 64 64 64 64 64 63 63 62 61 60 58 57 55 54 52 51 50 49 49
44 44 44 45 45 46 46 46 47 47 48 50 51 52 53 53 55 56 57 58 59 61 62 63 64 65 64 65 65 65 64 63 62 61 59 58 57 55 54 52 50 49 49 48
44 44 45 45 46 46 47 47 48 49 50 51 53 54 55 56 58 59 60 60 62 63 64 65 65 65 65 65 65 64 63 62 61 60 58 57 56 55 53 51 50 49 48 47
46 46 47 47 48 48 49 50 51 52 53 54 55 56 57 59 60 61 62 62 63 65 66 66 66 65 65 65 64 63 62 61 60 59 57 56 55 53 51 50 48 47 46 46
48 48 49 50 50 51 51 52 54 55 56 56 57 58 60 61 62 62 63 64 65 66 67 66 66 65 65 64 63 62 61 59 58 56 54 54 53 51 49 48 47 45 44 43
51 51 52 52 53 53 54 55 56 57 58 59 60 61 62 63 63 64 65 65 66 67 66 66 65 64 63 62 61 60 58 56 55 53 52 51 50 48 47 46 45 43 42 41
53 54 54 55 55 56 57 58 59 60 60 61 62 63 64 64 65 66 66 66 66 66 66 64 63 62 61 60 59 57 55 53 52 51 50 49 48 46 45 44 42 41 40 39
56 56 57 57 58 59 60 61 62 63 63 64 64 65 65 66 66 66 66 65 65 65 63 62 61 60 59 58 56 54 52 50 49 48 47 47 46 44 42 41 40 39 37 37
60 60 61 61 62 63 63 64 64 64 65 65 65 65 65 65 65 64 64 63 63 62 61 60 58 57 56 55 52 50 48 47 46 46 46 45 43 41 40 38 38 37 35 34
62 62 62 63 63 64 64 64 64 64 64 64 63 63 63 63 63 63 62 62 61 60 58 57 55 54 53 51 49 47 46 44 43 43 42 41 40 38 37 36 35 33 31 30
Wind_Direction
186 187 188 187 187 188 189 191 198 206 213 221 239 267 295 313 323 326 327 327 327 328 328 328 326 325 324 322 321 320 318 317 315 314 312 311 310 309 308 305 301 298 297 297
193 193 193 192 191 194 197 199 204 212 221 237 254 274 292 306 314 320 323 323 322 323 324 324 323 322 321 319 318 317 317 316 314 312 310 309 307 305 304 303 301 297 294 292
198 201 201 200 205 208 211 215 224 234 244 257 270 284 295 303 308 313 316 317 317 317 318 318 317 317 317 316 316 316 315 314 313 311 309 307 305 302 301 299 298 296 293 290
208 213 215 213 219 223 226 232 242 251 261 271 280 286 292 299 303 305 307 309 310 312 313 313 314 315 315 315 315 315 314 313 311 309 307 305 303 300 297 296 294 293 291 289
219 223 222 227 232 238 243 248 254 260 268 275 282 287 293 296 299 302 305 307 308 309 310 311 312 313 313 313 313 313 312 311 309 308 306 304 302 299 296 293 292 290 287 286
227 232 234 237 243 249 254 257 261 266 272 277 282 287 291 294 297 300 303 305 306 307 309 310 311 311 311 312 312 312 311 310 308 306 305 302 300 297 295 291 288 286 284 282
236 241 245 248 252 257 262 265 266 271 275 278 282 286 290 293 295 297 300 302 303 306 308 309 309 310 310 310 310 311 310 309 307 306 304 302 300 297 294 290 286 283 282 280
243 249 252 255 258 262 266 268 271 273 276 279 283 286 289 291 293 296 298 300 302 304 306 307 308 308 309 310 310 309 308 307 306 305 304 302 299 296 293 290 285 281 279 277
249 253 255 259 262 265 267 270 273 275 278 280 283 286 288 290 292 294 296 299 301 303 305 306 307 308 308 308 308 308 307 306 306 305 303 302 299 296 292 288 284 279 276 275
253 255 258 260 263 266 269 271 274 276 278 281 284 286 288 290 292 294 296 299 301 303 304 305 306 307 308 308 308 308 308 307 306 305 304 302 300 296 292 288 283 279 275 273
256 258 260 262 265 268 270 272 274 276 279 281 283 285 287 289 292 294 296 298 300 302 303 304 305 306 307 308 308 308 308 307 306 305 305 303 301 298 294 290 285 279 275 272
258 260 262 264 266 269 271 272 274 277 279 281 283 286 287 289 291 293 295 297 299 301 302 303 305 306 307 307 307 307 307 307 306 305 304 302 300 297 295 291 286 281 276 271
260 262 264 266 267 270 272 273 275 277 279 281 284 286 288 289 291 293 295 297 299 300 302 303 304 305 306 306 306 307 307 306 305 305 303 302 300 298 295 291 287 282 277 273
262 263 264 266 268 270 272 274 276 278 280 282 284 286 288 290 292 294 295 297 299 300 301 302 303 304 305 305 306 306 306 306 305 304 302 301 300 298 296 292 287 282 278 274
262 263 265 267 269 270 272 274 276 278 280 282 284 286 288 290 292 294 296 297 299 300 301 301 302 303 304 305 306 306 306 305 305 303 302 301 300 298 296 293 288 283 278 273
262 263 265 267 269 270 272 274 276 278 280 282 285 287 289 291 292 294 296 297 298 300 301 302 302 303 304 305 305 305 305 304 304 303 302 301 300 298 296 293 290 285 279 274
262 263 265 267 269 271 272 274 276 279 281 283 285 287 289 291 293 294 295 297 298 299 300 301 302 303 304 304 304 304 304 304 303 303 302 301 300 298 296 293 291 287 281 274
263 265 266 268 270 272 274 276 278 280 282 284 285 287 289 291 292 293 295 296 298 299 300 301 302 303 303 303 304 304 304 304 304 302 301 300 299 297 295 294 292 289 284 276
266 267 268 269 271 273 275 277 279 281 283 285 287 288 290 291 292 293 294 296 297 298 299 300 301 302 302 303 303 303 304 303 303 301 300 299 297 296 295 294 292 290 286 279
267 268 269 270 272 274 277 279 281 283 285 286 288 289 290 291 292 293 294 295 296 298 299 299 300 301 302 302 302 303 303 302 301 300 299 298 296 295 293 293 292 290 287 281
267 268 270 272 274 276 278 280 282 283 285 287 288 289 290 291 292 292 293 294 296 297 298 299 300 300 301 301 301 302 301 301 300 298 298 297 296 294 292 292 291 290 288 283
269 270 271 273 275 277 279 280 282 284 286 287 288 289 290 291 291 292 294 294 295 296 297 298 299 300 301 301 301 301 300 300 299 298 297 298 297 294 292 292 292 291 289 284
271 272 274 275 277 278 280 281 283 284 286 287 288 289 290 290 291 292 293 294 295 296 297 298 299 299 300 300 301 300 300 299 298 297 297 298 297 296 293 292 291 291 289 284
272 274 275 276 277 279 280 282 283 285 286 287 288 289 290 290 291 292 292 293 294 296 297 298 298 298 298 299 299 299 299 298 298 298 297 297 297 296 294 292 290 290 288 284
273 274 275 277 278 280 281 283 284 285 286 287 288 289 290 290 291 291 292 293 293 294 295 296 297 297 297 297 298 298 298 298 297 297 297 297 296 296 295 293 291 290 287 283
274 276 277 279 280 282 283 284 285 286 286 287 288 288 289 289 290 290 291 292 292 293 294 294 295 295 295 295 296 296 296 297 296 296 297 296 295 295 294 293 291 288 285 280
276 277 278 279 280 282 282 283 284 285 286 287 287 287 288 289 289 290 290 291 291 292 292 292 292 293 293 294 293 294 295 296 296 296 296 296 295 295 294 294 292 288 283 279